Home   Weather   Le Havre   Past weeks

Flag for France Past Weather in Le Havre, Upper Normandy, France — Yesterday and Last 2 Weeks

46 °F


Feels Like: 46 °F
Forecast: 51 / 60 °F
Wind: 2 mph from Northeast

Location: La Heve

Current Time: Oct 25, 2016 at 8:51:38 AM

Latest Report: Oct 25, 2016 at 8:00 AM

Visibility: 0 mi

Pressure: 30.12 "Hg

Humidity: 93%

Dew Point: 45 °F

Location of Le HavreLocation

Past Weather in Le Havre — Graph


Le Havre Temperature Yesterday

Maximum temperature yesterday: 59 °F (at 4:00 PM)
Minimum temperature yesterday: 50 °F (at 12:00 AM)
Average temperature yesterday: 53 °F

High & Low Weather Summary for the Past Weeks

High63 °F (Oct 17, 3:30 PM)100% (Oct 11, 9:00 AM)30.30 "Hg (Oct 11, 9:00 AM)
Low41 °F (Oct 11, 5:30 AM)58% (Oct 11, 2:00 PM)29.62 "Hg (Oct 14, 2:30 PM)
Average52 °F83%29.99 "Hg
* Reported Oct 10 7:00 AM — Oct 25 7:30 AM, Le Havre, Weather by CustomWeather, © 2016

Note: Actual official high and low records may vary slightly from our data, if they occured in-between our weather recording intervals... More about our weather records


Le Havre Weather History for the Previous 24 Hours

Scroll right to see more
Time TempWeatherWind HumidityBarometerVisibility
7:30 AM
Tue, Oct 25
48 °FFog.2 mph100%30.12 "Hg0 mi
7:00 AM48 °FFog.2 mph100%30.09 "Hg0 mi
6:30 AM50 °FFog.3 mph100%30.09 "Hg1 mi
6:00 AM50 °FFog.2 mph100%30.09 "Hg0 mi
5:30 AM50 °FFog.2 mph100%30.07 "Hg0 mi
5:00 AM52 °FDense fog.3 mph100%30.07 "Hg1 mi
4:30 AM52 °FFog.2 mph100%30.07 "Hg1 mi
4:00 AM52 °FFog.1 mph94%30.07 "Hg2 mi
3:30 AM52 °FFog.1 mph100%30.07 "Hg2 mi
3:00 AM54 °FFog.3 mph94%30.07 "Hg2 mi
2:30 AM54 °FFog.3 mph94%30.04 "Hg3 mi
2:00 AM54 °FFog.2 mph94%30.04 "Hg2 mi
1:30 AM54 °FFog.3 mph94%30.04 "Hg3 mi
1:00 AM54 °FClear.2 mph94%30.04 "Hg4 mi
12:30 AM54 °FClear.3 mph100%30.04 "Hg4 mi
12:00 AM54 °FFog.2 mph100%30.01 "Hg3 mi
11:30 PM
Mon, Oct 24
54 °FClear.5 mph100%30.01 "Hg4 mi
11:00 PM54 °FClear.5 mph100%30.01 "Hg4 mi
10:30 PM54 °FClear.5 mph94%29.98 "Hg4 mi
10:00 PM55 °FClear.5 mph88%29.98 "Hg5 mi
9:30 PM55 °FClear.5 mph94%29.95 "Hg6 mi
9:00 PM54 °FClear.3 mph100%29.95 "Hg4 mi
8:30 PM54 °FClear.3 mph94%29.95 "Hg5 mi
8:00 PM54 °FOvercast.2 mph94%29.95 "HgN/A
7:30 PM54 °FOvercast.3 mph94%29.92 "HgN/A
7:00 PM55 °FMostly cloudy.1 mph88%29.92 "HgN/A
6:30 PM55 °FClear.No wind82%29.92 "Hg4 mi
6:00 PM55 °FSunny.No wind88%29.92 "Hg10 mi
5:30 PM57 °FSunny.3 mph82%29.89 "Hg10 mi
5:00 PM59 °FPartly sunny.No wind77%29.89 "HgN/A
4:30 PM59 °FBroken clouds.3 mph77%29.86 "HgN/A
4:00 PM59 °FSunny.2 mph82%29.86 "Hg10 mi
3:30 PM57 °FScattered clouds.2 mph82%29.86 "HgN/A
3:00 PM55 °FSunny.3 mph88%29.86 "Hg10 mi
2:30 PM55 °FPassing clouds.3 mph88%29.86 "HgN/A
2:00 PM55 °FPassing clouds.3 mph88%29.86 "HgN/A
1:30 PM54 °FBroken clouds.3 mph94%29.86 "HgN/A
1:00 PM54 °FBroken clouds.2 mph94%29.86 "HgN/A
12:30 PM52 °FOvercast.2 mph100%29.86 "Hg6 mi
12:00 PM52 °FLow clouds.3 mph100%29.86 "Hg4 mi
11:30 AM52 °FFog.5 mph94%29.86 "Hg3 mi
11:00 AM50 °FFog.3 mph100%29.83 "Hg3 mi
10:30 AM50 °FFog.5 mph100%29.83 "Hg2 mi
10:00 AM50 °FFog.3 mph100%29.83 "Hg2 mi
9:30 AM50 °FFog.3 mph100%29.83 "Hg2 mi
9:00 AM50 °FFog.5 mph100%29.80 "Hg2 mi
8:30 AM50 °FFog.3 mph100%29.80 "Hg2 mi
8:00 AM50 °FFog.1 mph100%29.77 "Hg2 mi
Weather by CustomWeather, © 2016

See weather overviewHow to use our weather pages